Location: Houhaj�rvi
(61.2667°N, 23.0167°E)
Time: 18:52:24
(UTC+00:00)

AQUARIUS - Pass Details

Date: 13 December 2019
Orbit: 650 x 653 km, 98.0° (Epoch: 17 January)

Event Time Altitude Azimuth Distance (km) Brightness Sun altitude
Rises 15:40:10 0° 167° (SSE) 2,971 7.7 -15.3°
Reaches altitude 10° 15:42:23 10° 170° (S) 2,063 6.9 -15.6°
Maximum altitude 15:46:53 72° 254° (WSW) 693 4.4 -16.1°
Drops below altitude 10° 15:51:25 10° 340° (NNW) 2,077 6.8 -16.6°
Sets 15:53:39 0° 343° (NNW) 2,992 7.6 -16.9°
